Location: Lane
(33.5226°N, 79.8788°W)
Time: 19:28:49
(UTC+00:00)

Explorer 11/Cluster Stage 4 - Pass Details

Date: 01 October 2022
Orbit: 466 x 1247 km, 28.8° (Epoch: 01 December)

Event Time Altitude Azimuth Distance (km) Brightness Sun altitude
Rises 17:41:53 0° 245° (WSW) 4,130 10.6 52.3°
Reaches altitude 10° 17:45:01 10° 240° (WSW) 3,108 10.2 52.1°
Maximum altitude 17:52:24 48° 169° (SSE) 1,360 9.6 51.7°
Drops below altitude 10° 17:58:40 10° 96° (E) 2,639 9.3 51.3°
Sets 18:01:07 0° 91° (E) 3,463 9.8 51.1°
